Location: Hamburg
(53.5554°N, 9.9941°E)
Time: 11:57:38
(UTC+01:00)

ISS - Pass Details

Date: 13 November 2017
Orbit: 402 x 407 km, 51.6° (Epoch: 23 November)

Event Time Altitude Azimuth Distance (km) Brightness Sun altitude
Exits shadow 06:35:02 11° 255° (WSW) 1,380 -1.6 -10.0°
Maximum altitude 06:37:06 18° 213° (SSW) 1,056 -1.9 -9.7°
Drops below altitude 10° 06:39:25 10° 167° (SSE) 1,452 -0.6 -9.4°
Sets 06:41:54 0° 148° (SSE) 2,308 0.9 -9.0°
